This is the latest recevied weather packets stored in our database for station/object KE5VT. If no packets are shown the sender has not sent any weather packets the latest 10 day(s).
| Time | Temp. | Humidity | Pressure | Rain* | Wind** | Luminosity | Snow |
|---|---|---|---|---|---|---|---|
| 1777623968 | 14.44° C | 53% | 1009.8 hPa | 0 mm | - | 0 W/m² | - |
| 1777623664 | 14.44° C | 50% | 1009.6 hPa | 0 mm | - | 0 W/m² | - |
| 1777623362 | 15° C | 51% | 1009.4 hPa | 0 mm | - | 0 W/m² | - |
| 1777623058 | 15° C | 51% | 1009.6 hPa | 0 mm | - | 0 W/m² | - |
| 1777622756 | 15° C | 50% | 1009.6 hPa | 0 mm | - | 0 W/m² | - |
| 1777622452 | 15° C | 49% | 1009.9 hPa | 0 mm | - | 0 W/m² | - |
| 1777622149 | 15° C | 50% | 1009.9 hPa | 0 mm | - | 0 W/m² | - |
| 1777621844 | 15° C | 48% | 1009.9 hPa | 0 mm | - | 0 W/m² | - |
| 1777621541 | 15° C | 49% | 1009.8 hPa | 0 mm | - | 0 W/m² | - |
| 1777621238 | 15.56° C | 48% | 1009.8 hPa | 0 mm | - | 0 W/m² | - |
| 1777620934 | 15.56° C | 48% | 1009.5 hPa | 0 mm | - | 0 W/m² | - |
| 1777620629 | 15.56° C | 47% | 1009.6 hPa | 0 mm | - | 0 W/m² | - |
| 1777620326 | 15.56° C | 47% | 1009.7 hPa | 0 mm | - | 0 W/m² | - |
| 1777620023 | 15.56° C | 46% | 1009.4 hPa | 0 mm | - | 0 W/m² | - |
| 1777619719 | 15.56° C | 46% | 1009.4 hPa | 0 mm | - | 0 W/m² | - |
| 1777619420 | 15.56° C | 46% | 1009.5 hPa | 0 mm | - | 0 W/m² | - |
| 1777619120 | 15.56° C | 47% | 1009.6 hPa | 0 mm | - | 0 W/m² | - |
| 1777618815 | 15.56° C | 44% | 1009.5 hPa | 0 mm | - | 0 W/m² | - |
| 1777618509 | 15.56° C | 47% | 1009.4 hPa | 0 mm | - | 0 W/m² | - |
| 1777618206 | 16.11° C | 45% | 1009.5 hPa | 0 mm | - | 0 W/m² | - |
| 1777617903 | 16.11° C | 45% | 1009.5 hPa | 0 mm | - | 0 W/m² | - |
| 1777617598 | 16.11° C | 47% | 1009.4 hPa | 0 mm | - | 0 W/m² | - |
| 1777617295 | 16.11° C | 46% | 1009.6 hPa | 0 mm | - | 0 W/m² | - |
| 1777616993 | 16.11° C | 47% | 1009.5 hPa | 0 mm | - | 0 W/m² | - |
| 1777616687 | 16.11° C | 45% | 1009.7 hPa | 0 mm | - | 0 W/m² | - |
* Rain latest hour (hover to see other rain measurements)
** Current wind speed in m/s (hover to see current wind gust speed)